CZ-6A DEB, 61815

Orbit data source: Space-Track

CZ-6A DEB, 61815 is space debris in LEO originally from a launch on Tue, 06 Aug 2024 UTC launched from the Taiyaun Space Center, China (TSC). Debris objects in space refer to the collection of defunct objects orbiting the Earth. Examples of debris include non-operational satellites, rocket bodies, and fragments generated from explosions, collisions, or faulty payload assembly.

Loading next visibility...
Identifier
61815, 2024-140ACF
Orbit
LEO
Country
Flag of CNCN / PRC
Related business
Manufacturer
SAST
Mission
Spacecraft
Bus & Motor
Unknown
Mass
Unknown
Launch date (UTC)
2024-08-06 (2 years ago)
Launch vehicle
Unknown
Launch site
Taiyaun Space Center, China (TSC)
Object type
Payload
Rocket body
Debris
Shape & HBR
Unknown shape, 0.1 m
Radar Cross Section
Small (<0.1 m²)

Expand to show TLE details & history
Last TLE update: 16 hours ago

TLE from 16 hours ago
0 CZ-6A DEB
1 61815U 24140ACF 26171.25055647  .00000565  00000-0  26318-3 0  9992
2 61815  89.0313 276.9918 0053867 174.8439 185.3317 14.18462140 90710
Epoch: 2026-06-20T06:00Z
TLE epoch observation values (Epoch: 2026-06-20T06:00:48.079Z)
Latitude
-0.00004°
Longitude
-81.6764°
Altitude
872.283 km
Speed
7.396 km/s
True Right ascension
18h 27m 58s
True Declination
0° 00' 00"
Sunlit
Object was in full shadow at epoch
Visualization orbit readout
Latitude
Unknown
Longitude
Unknown
Altitude
Unknown
Speed
Unknown
Apparent Right ascension
Unknown
Apparent Declination
Unknown
Sunlit
N/A
Visualization observer readout
Local Sidereal Time
08:42:09
Azimuth
Unknown
Elevation
Unknown
Doppler factor
Unknown
Orbital elements
Apogee altitude
866.326 km
Perigee altitude
788.697 km
Semi-major axis
7,205.649 km
Eccentricity
0.00539
Inclination
89.0313°
RAAN
276.9918°
Arg. of periapsis
174.8439°
True anomaly
185.27472°
Mean anomaly
185.3317°
Eccentric anomaly
185.30317°
Mean motion
3.54841 °/min
Orbital period
101.45 mins
BSTAR
0.00026318
Loading maneuver chart data...
Computing Atmospheric mass density...
Loading historical data...
Loading historical data...
Loading historical data...
Loading historical data...
Loading historical data...
Loading historical data...
Loading historical data...

Documentation

Showing up to 5 results
|